Location: St. Louis
(38.6270°N, 90.1994°W)
Time: 00:10:57
(UTC-06:00)

HuskySat-1 - Visible Passes

Search period start: 28 January 2022 00:00
Search period end: 07 February 2022 00:00
Orbit: 439 x 452 km, 51.6° (Epoch: 27 January)

Date Brightness Start Highest point End Pass type
(mag) Time Alt. Az. Time Alt. Az. Time Alt. Az.
28 Jan ? 18:26:13 10° SSW 18:29:14 28° SE 18:30:08 24° ESE visible
28 Jan ? 20:03:21 10° W 20:03:41 12° W 20:03:41 12° W visible
29 Jan ? 17:47:42 10° S 17:50:18 20° SE 17:52:53 10° E visible
29 Jan ? 19:24:06 10° WSW 19:26:41 37° WNW 19:26:41 37° WNW visible
30 Jan ? 18:44:54 10° WSW 18:48:21 62° NW 18:49:34 35° NNE visible
31 Jan ? 18:05:46 10° SW 18:09:16 88° NNW 18:12:22 13° NE visible
31 Jan ? 19:44:39 10° WNW 19:45:53 15° NW 19:45:53 15° NW visible
01 Feb ? 19:05:06 10° WNW 19:07:49 21° NNW 19:08:35 19° N visible
02 Feb ? 18:25:35 10° W 18:28:34 25° NNW 18:31:12 12° NNE visible
03 Feb ? 19:26:19 10° NNW 19:27:15 11° NNW 19:27:15 11° NNW visible
04 Feb ? 18:46:31 10° NW 18:48:11 13° NNW 18:49:44 10° NNE visible
05 Feb ? 18:06:45 10° NW 18:08:47 15° NNW 18:10:50 10° NNE visible
